Regional Weather Roundup
Issued by NWS

Home | Current Version | Previous Version | Graphics & Text | Print | Product List | Glossary On
Versions: 1 2 3 4 5 6 7 8 9 10 11 12 13 14 15 16 17 18 19 20 21 22 23 24 25 26 27 28 29 30 31 32 33 34 35 36 37 38 39 40 41 42 43 44 45 46 47 48 49 50
075
ASUS43 KLMK 242110
RWRKY
KENTUCKY REGIONAL WEATHER ROUNDUP
NATIONAL WEATHER SERVICE LOUISVILLE KY
500 PM EDT SAT JUN 24 2017

NOTE "FAIR" INDICATES FEW OR NO CLOUDS BELOW 12,000 FEET
WITH NO SIGNIFICANT WEATHER AND/OR OBSTRUCTIONS TO VISIBILITY.

KYZ001>023-026-027-061>063-070>075-242200-
WESTERN AND SOUTH CENTRAL KENTUCKY

CITY           SKY/WX    TMP DP  RH WIND       PRES   REMARKS
PADUCAH        CLOUDY    81  56  42 NW9       30.09S
HENDERSON      SUNNY     78  54  43 NW14G21   30.08S
OWENSBORO      PTSUNNY   80  58  46 NW12G18   30.06F
HOPKINSVILLE   MOSUNNY   79  60  52 W12       30.06F
BOWLING GREEN  MOSUNNY   80  60  50 W9        30.06S
GLASGOW        MOSUNNY   79  55  43 NW6       30.05F
$$

KYZ024-025-028>034-038-045-046-053-242200-
NORTH CENTRAL KENTUCKY

CITY           SKY/WX    TMP DP  RH WIND       PRES   REMARKS
LOUISVILLE/SDF PTSUNNY   80  56  43 NW15G23   30.03S
LOUISVILLE/LOU MOSUNNY   81  57  43 NW14G22   30.04R
FORT KNOX      MOSUNNY   77  58  51 NW9       30.04S
$$

KYZ035>037-039>044-047>052-055>060-089>105-242200-
NORTHEAST KENTUCKY

CITY           SKY/WX    TMP DP  RH WIND       PRES   REMARKS
LEXINGTON      CLOUDY    77  56  48 NW8       30.03F
COVINGTON      PTSUNNY   78  59  51 NW13      30.01F
FRANKFORT      MOSUNNY   80  56  43 W7        30.02S
$$

KYZ054-064>069-076>088-106>120-242200-
SOUTHEAST KENTUCKY

CITY           SKY/WX    TMP DP  RH WIND       PRES   REMARKS
JACKSON        MOSUNNY   79  60  52 VRB5      30.02F
LONDON         MOSUNNY   80  59  48 W10       30.03S
SOMERSET       CLOUDY    79  55  44 W10       30.04F
MIDDLESBORO    MOSUNNY   81  61  49 NW7       30.02S
MONTICELLO     PTCLDY    80  63  55 W10       30.05F
$$





USA.gov is the U.S. government's official web portal to all federal, state and local government web resources and services.